Retour au catalogue

CZ-6A DEB

ActifPO
NORAD 54919·DEBRIS·🇨🇳 China

Lancé Nov 11, 2022 depuis Taiyuan Satellite Launch Center

Loading…

Prochains Passages (prochaines 24 heures)

TLE

FraisSource: Space-Track

Époque: Sep 13, 2026, 16:43 UTC

1 54919U 22151RG  26256.69714285  .00007429  00000-0  11009-2 0  9997
2 54919  98.6227 328.0495 0066856   5.6400 354.5544 14.73908940199836

Suivez CZ-6A DEB en temps réel avec AllMySat

Download on the App Store